Overview Statistics Trail Chart Weather Telemetry Raw packets
 

This is the latest recevied weather packets stored in our database for station/object EA5FOG-11. If no packets are shown the sender has not sent any weather packets the latest 10 day(s).

<< 30 31 32 33 34 35 36 >>
Time Temp. Humidity Pressure Rain* Wind** Luminosity Snow
1787872373 23.33° C 36% 959 hPa - - - -
1787871472 23.33° C 36% 959.4 hPa - - - -
1787870572 23.33° C 36% 959.3 hPa - - - -
1787869671 23.33° C 36% 959.5 hPa - - - -
1787868770 23.89° C 36% 959.2 hPa - - - -
1787867869 24.44° C 36% 958.9 hPa - - - -
1787866968 24.44° C 36% 958.6 hPa - - - -
1787866067 25° C 36% 958.5 hPa - - - -
1787865167 25.56° C 35% 958.3 hPa - - - -
1787864266 25.56° C 35% 958.1 hPa - - - -
1787863365 26.11° C 34% 957.9 hPa - - - -
1787862464 26.11° C 34% 957.6 hPa - - - -
1787861563 26.67° C 33% 957.4 hPa - - - -
1787860663 26.67° C 33% 957.2 hPa - - - -
1787859762 27.22° C 32% 957 hPa - - - -
1787857982 28.33° C 31% 956.8 hPa - - - -
1787857081 28.89° C 30% 956.1 hPa - - - -
1787856180 29.44° C 30% 955.4 hPa - - - -
1787855279 30° C 30% 955.1 hPa - - - -
1787854379 30.56° C 29% 955.1 hPa - - - -
1787853478 31.11° C 29% 954.9 hPa - - - -
1787852576 31.67° C 28% 954.8 hPa - - - -
1787851675 32.22° C 28% 954.8 hPa - - - -
1787850775 32.78° C 28% 954.8 hPa - - - -
1787849874 33.33° C 27% 954.5 hPa - - - -

* Rain since midnight (hover to see other rain measurements)
** Current wind speed in m/s (hover to see current wind gust speed)